Tracking 19706 objects as of 16-Jun-2019
HD Live streaming from Space Station
objects crossing your sky now

THORAD AGENA D DEB

Track THORAD AGENA D DEB now!
10-day predictions


NORAD ID: 5842
Int'l Code: 1970-025ML
Perigee: 683.0 km
Apogee: 733.1 km
Inclination: 100.0 °
Period: 98.8 minutes
Semi major axis: 7079 km
RCS: 0.026 m2 (small)
Launch date: April 8, 1970
Source: United States (US)
Launch site: AIR FORCE WESTERN TEST RANGE (AFWTR)

Note: This is SATELLITE DEBRIS
aabbcc
Your satellite tracking list
Your tracking list is empty




NASA's NSSDC Master Catalog

Two Line Element Set (TLE):
1  5842U 70025ML  19166.46191884  .00000998  00000-0  23150-3 0  9997
2  5842 100.0107 166.3823 0035391 197.8464 162.1488 14.57593879525672
Source of the keplerian elements: AFSPC